Regional Weather Roundup
Issued by NWS Sioux Falls, SD

Home | Current Version | Previous Version | Text Only | Print | Product List | Glossary On
Versions: 1 2 3 4 5 6 7 8 9 10 11 12 13 14 15 16 17 18 19 20 21 22 23 24 25 26 27 28 29 30 31 32 33 34 35 36 37 38 39 40 41 42 43 44 45 46 47 48 49 50
000
ASUS43 KFSD 212310
RWRFSD

WEATHER ROUNDUP FOR SE SOUTH DAKOTA/SW MINNESOTA/NW IOWA
NATIONAL WEATHER SERVICE SIOUX FALLS SD
600 PM CDT THU AUG 21 2014

NOTE: "FAIR" INDICATES FEW OR NO CLOUDS BELOW 12,000 FEET WITH NO
SIGNIFICANT WEATHER AND OR OBSTRUCTIONS TO VISIBILITY.


SDZ038>040-050-052>070-220000-
SOUTHEAST SOUTH DAKOTA

CITY           SKY/WX    TMP DP  RH WIND       PRES   REMARKS
CHAMBERLAIN    SUNNY     86  62  44 N7        29.87S
HURON          SUNNY     85  64  49 N10       29.84R
MADISON        FAIR      82  70  65 NW12      29.87R
MITCHELL       SUNNY     87  70  56 N6        29.84R
SIOUX FALLS    MOSUNNY   87  70  56 NW10      29.83S
WINNER         FAIR      89  58  34 N7        29.90S
YANKTON        SUNNY     88  72  58 W10       29.82R
$$

MNZ071-072-080-081-089-090-097-098-220000-
SOUTHWEST MINNESOTA

CITY           SKY/WX    TMP DP  RH WIND       PRES   REMARKS
FAIRMONT       PTSUNNY   86  72  62 MISG      29.82S
JACKSON        MOSUNNY   86  72  62 SW10      29.84R
LUVERNE        SUNNY     88  72  58 N9        29.84R
MARSHALL       MOSUNNY   84  72  65 N9        29.81R
MONTEVIDEO     PTSUNNY   82  73  74 NE5       29.82R
PIPESTONE      SUNNY     84  66  54 NW9       29.86R
REDWOOD FALLS  MOSUNNY   84  73  69 N7        29.81R
TRACY          PTSUNNY   84  76  77 N8        29.83R
WINDOM         CLOUDY    82  73  74 NE8       29.82R
WORTHINGTON    MOSUNNY   88  27  11 W9        29.85R
$$

IAZ001>003-012>014-020>022-031-032-NEZ013-014-SDZ071-220000-
NORTHWEST IOWA

CITY           SKY/WX    TMP DP  RH WIND       PRES   REMARKS
CHEROKEE       SUNNY     87  77  72 SW5       29.83R HX  99
DENISON        SUNNY     86  73  66 VRB6G13   29.83S
ESTHERVILLE    PTSUNNY   84  74  71 SW9       29.83R
LE MARS        SUNNY     88  75  66 SW5       29.83R HX  97
ORANGE CITY    SUNNY     88  73  62 W5        29.84R HX  96
SHELDON        SUNNY     86  77  74 SW6       29.82S HX  97
SIOUX CITY     SUNNY     90  75  61 W6        29.82R HX 100
SPENCER        MOSUNNY   86  74  67 SW9       29.83S
STORM LAKE     MOSUNNY   84  79  84 SW9       29.85S HX  96
$$

ABBREVIATIONS USED IN REMARKS
   TC - TEMPERATURE IN CELSIUS
  WCI - WIND CHILL INDEX
   HX - HEAT INDEX
  VSB - VISIBILITY




USA.gov is the U.S. government's official web portal to all federal, state and local government web resources and services.